Starlink 4101

operational
NORAD ID: 53142 Int'l Des: 2022-083 Owner: SPXS Country: US Constellation: starlink
LEOCIRCULAR

Starlink 4101について

説明を読み込み中...

リアルタイム位置

3D地球を読み込み中...

次回通過

高度履歴

Altitude vs Time

uPlot chart will show altitude changes over time

軌道要素

1 53142U 22083L 25305.61148936 .00004462 00000-0 29852-3 0 9998
2 53142 53.2191 29.0605 0001700 111.9614 248.1559 15.08811597181897
Epoch: Nov 1, 2025 • Age: 24 hours

現在のステータス

高度 540.1 km
速度 7.59 km/s
衛星直下点 12.88°N, 133.35°E
打ち上げ日 Jul 17, 2022
運用期間 3.2 years
タイプ internet

技術仕様

分類 Payload
質量 297.00 kg
乾燥質量 275.00 kg
総質量 297.00 kg
長さ 0.20 m
直径 2.80 m
スパン 9.00 m
形状 Box + pan
製造者 SPXS
バスタイプ Starlink
フェーズステータス In Orbit
所有者/国 SPXS/US

大規模コンステレーション

Loading constellations...